Date String (YYYY-MM-DD hh:mm:ss) UTC,Instrument flags,Ambient pressure (hPa),Sample flow (lpm),Bypass flow (lpm),Sample temperature (°C),Ambient temperature (°C),ASC tube jacket temperature (°C),LED temperature (°C),Box temperature (°C),Sample RH (%),Span deviation,Mass concentration (μg/m³),Mass concentration (μg/m³),Mass concentration (μg/m³)
DateTimeUTC,F1_M11,P_M11,Q1_M11,Q2_M11,T1_M11,T2_M11,T3_M11,T4_M11,T5_M11,U1_M11,ZSPAN_M11,X2_M11,X0_M11,X1_M11
2022-05-20 04:00:00,,0814.9,5.01,0.00,29.8,28.5,00.0,38.9,31.5,13.9,0000.0,0004.01,0017.81,0001.90
2022-05-20 04:01:00,,0814.9,5.00,0.00,29.8,28.5,00.0,38.8,31.5,13.9,0000.0,0003.96,0017.97,0001.90
2022-05-20 04:02:00,,0815.0,5.01,0.00,29.7,28.5,00.0,38.8,31.4,13.9,0000.0,0003.85,0017.38,0001.89
2022-05-20 04:03:00,,0814.7,5.00,0.00,29.7,28.5,00.0,38.8,31.4,13.9,0000.0,0003.83,0014.89,0001.88
2022-05-20 04:04:00,,0814.9,5.00,0.00,29.7,28.5,00.0,38.8,31.4,13.9,0000.0,0003.82,0015.13,0001.87
2022-05-20 04:05:00,,0814.9,4.98,0.00,29.7,28.5,00.0,38.8,31.4,13.9,0000.0,0003.81,0015.45,0001.87
2022-05-20 04:06:00,,0815.0,5.00,0.00,29.7,28.5,00.0,38.8,31.4,14.0,0000.0,0003.76,0016.38,0001.89
2022-05-20 04:07:00,,0814.9,4.99,0.00,29.7,28.5,00.0,38.8,31.4,14.0,0000.0,0003.76,0016.30,0001.89
2022-05-20 04:08:00,,0814.9,5.00,0.00,29.7,28.5,00.0,38.8,31.4,14.0,0000.0,0003.77,0016.30,0001.87
2022-05-20 04:09:00,,0814.9,4.99,0.00,29.7,28.5,00.0,38.8,31.4,14.0,0000.0,0003.76,0015.89,0001.88
2022-05-20 04:10:00,,0815.1,5.00,0.00,29.7,28.4,00.0,38.7,31.4,14.0,0000.0,0003.83,0015.04,0001.91
2022-05-20 04:11:00,,0815.1,4.99,0.00,29.7,28.4,00.0,38.7,31.3,14.0,0000.0,0003.90,0015.74,0001.93
2022-05-20 04:12:00,,0814.9,5.00,0.00,29.6,28.4,00.0,38.7,31.3,14.0,0000.0,0003.93,0016.31,0001.93
2022-05-20 04:13:00,,0814.9,5.00,0.00,29.6,28.4,00.0,38.7,31.3,14.1,0000.0,0003.97,0015.62,0001.93
2022-05-20 04:14:00,,0815.0,5.01,0.00,29.6,28.4,00.0,38.7,31.3,14.1,0000.0,0003.97,0016.30,0001.94
2022-05-20 04:15:00,,0815.0,5.00,0.00,29.6,28.4,00.0,38.7,31.3,14.1,0000.0,0003.94,0015.86,0001.95
2022-05-20 04:16:00,,0815.1,5.00,0.00,29.6,28.4,00.0,38.7,31.2,14.1,0000.0,0003.92,0015.85,0001.95
2022-05-20 04:17:00,,0814.9,4.99,0.00,29.5,28.4,00.0,38.7,31.2,14.1,0000.0,0003.93,0015.73,0001.93
2022-05-20 04:18:00,,0814.9,4.99,0.00,29.5,28.4,00.0,38.6,31.2,14.1,0000.0,0003.93,0016.26,0001.93
2022-05-20 04:19:00,,0814.9,5.02,0.00,29.5,28.3,00.0,38.6,31.2,14.1,0000.0,0003.86,0016.53,0001.92
2022-05-20 04:20:00,,0815.1,5.00,0.00,29.5,28.3,00.0,38.6,31.2,14.1,0000.0,0003.85,0016.00,0001.91
2022-05-20 04:21:00,,0814.9,5.00,0.00,29.5,28.3,00.0,38.6,31.1,14.2,0000.0,0003.85,0016.85,0001.89
2022-05-20 04:22:00,,0814.9,5.00,0.00,29.5,28.3,00.0,38.6,31.2,14.1,0000.0,0003.80,0016.59,0001.87
2022-05-20 04:23:00,,0815.0,4.99,0.00,29.5,28.3,00.0,38.6,31.2,14.1,0000.0,0003.78,0015.66,0001.86
2022-05-20 04:24:00,,0815.1,4.99,0.00,29.5,28.3,00.0,38.5,31.2,14.1,0000.0,0003.85,0016.85,0001.87
2022-05-20 04:25:00,,0815.1,5.01,0.00,29.5,28.3,00.0,38.5,31.2,14.1,0000.0,0003.85,0017.37,0001.85
2022-05-20 04:26:00,,0815.1,5.01,0.00,29.5,28.3,00.0,38.5,31.2,14.2,0000.0,0003.87,0017.12,0001.84
2022-05-20 04:27:00,,0815.1,5.01,0.00,29.5,28.3,00.0,38.5,31.2,14.1,0000.0,0003.89,0016.46,0001.82
2022-05-20 04:28:00,,0815.0,5.00,0.00,29.5,28.3,00.0,38.5,31.2,14.1,0000.0,0003.99,0016.04,0001.83
2022-05-20 04:29:00,,0815.2,5.00,0.00,29.5,28.3,00.0,38.5,31.2,14.1,0000.0,0004.02,0016.14,0001.84
2022-05-20 04:30:00,,0815.4,5.00,0.00,29.5,28.3,00.0,38.5,31.2,14.1,0000.0,0004.09,0016.26,0001.87
2022-05-20 04:31:00,,0815.4,5.00,0.00,29.5,28.3,00.0,38.5,31.2,14.1,0000.0,0004.10,0016.30,0001.87
2022-05-20 04:32:00,,0815.4,4.99,0.00,29.5,28.3,00.0,38.5,31.2,14.1,0000.0,0004.07,0016.35,0001.87
2022-05-20 04:33:00,,0815.4,5.01,0.00,29.5,28.3,00.0,38.5,31.2,14.1,0000.0,0004.08,0016.62,0001.88
2022-05-20 04:34:00,,0815.2,5.01,0.00,29.5,28.3,00.0,38.5,31.3,14.0,0000.0,0004.08,0017.49,0001.88
2022-05-20 04:35:00,,0815.1,5.00,0.00,29.5,28.4,00.0,38.5,31.3,14.0,0000.0,0003.99,0017.05,0001.88
2022-05-20 04:36:00,,0815.2,5.00,0.00,29.5,28.4,00.0,38.5,31.2,14.0,0000.0,0004.07,0017.33,0001.90
2022-05-20 04:37:00,,0815.3,5.00,0.00,29.5,28.3,00.0,38.5,31.2,14.0,0000.0,0004.06,0017.75,0001.89
2022-05-20 04:38:00,,0815.2,4.99,0.00,29.5,28.3,00.0,38.5,31.2,14.0,0000.0,0004.05,0020.08,0001.91
2022-05-20 04:39:00,,0815.2,4.99,0.00,29.5,28.3,00.0,38.5,31.2,14.0,0000.0,0003.99,0019.14,0001.92
2022-05-20 04:40:00,,0815.2,5.01,0.00,29.4,28.3,00.0,38.5,31.1,14.0,0000.0,0003.95,0019.46,0001.90
2022-05-20 04:41:00,,0815.1,5.01,0.00,29.4,28.2,00.0,38.5,31.1,14.0,0000.0,0003.93,0020.41,0001.87
2022-05-20 04:42:00,,0815.2,5.01,0.00,29.4,28.2,00.0,38.5,31.0,14.0,0000.0,0003.92,0020.87,0001.88
2022-05-20 04:43:00,,0815.1,4.99,0.00,29.4,28.2,00.0,38.4,31.0,14.0,0000.0,0003.96,0021.27,0001.89
2022-05-20 04:44:00,,0815.0,5.00,0.00,29.3,28.1,00.0,38.4,31.0,14.1,0000.0,0003.94,0022.89,0001.90
2022-05-20 04:45:00,,0814.8,5.00,0.00,29.3,28.1,00.0,38.4,31.0,14.1,0000.0,0003.93,0022.92,0001.90
2022-05-20 04:46:00,,0814.6,5.01,0.00,29.3,28.0,00.0,38.4,31.0,14.1,0000.0,0003.93,0022.39,0001.89
2022-05-20 04:47:00,,0814.9,5.00,0.00,29.3,28.0,00.0,38.4,30.9,14.1,0000.0,0003.89,0021.93,0001.88
2022-05-20 04:48:00,,0815.1,4.99,0.00,29.2,28.0,00.0,38.4,30.9,14.1,0000.0,0003.92,0022.85,0001.88
2022-05-20 04:49:00,,0815.3,4.99,0.00,29.2,27.9,00.0,38.3,30.9,14.1,0000.0,0003.94,0020.79,0001.89
2022-05-20 04:50:00,,0815.3,5.00,0.00,29.2,27.9,00.0,38.3,30.9,14.2,0000.0,0003.93,0020.64,0001.86
2022-05-20 04:51:00,,0815.3,5.00,0.00,29.2,27.9,00.0,38.3,30.9,14.2,0000.0,0003.93,0019.58,0001.86
2022-05-20 04:52:00,,0815.4,5.00,0.00,29.2,27.9,00.0,38.3,30.9,14.2,0000.0,0003.90,0017.96,0001.86
2022-05-20 04:53:00,,0815.4,5.00,0.00,29.2,27.9,00.0,38.3,30.9,14.2,0000.0,0003.89,0017.17,0001.86
2022-05-20 04:54:00,,0815.4,4.99,0.00,29.2,27.9,00.0,38.3,30.9,14.2,0000.0,0003.85,0015.80,0001.85
2022-05-20 04:55:00,,0815.7,5.00,0.00,29.2,27.9,00.0,38.3,30.9,14.2,0000.0,0003.83,0013.91,0001.85
2022-05-20 04:56:00,,0815.8,5.01,0.00,29.2,27.9,00.0,38.3,30.9,14.3,0000.0,0003.87,0013.90,0001.85
2022-05-20 04:57:00,,0815.8,4.99,0.00,29.2,27.9,00.0,38.3,30.9,14.2,0000.0,0003.90,0013.78,0001.85
2022-05-20 04:58:00,,0815.8,5.00,0.00,29.2,28.0,00.0,38.2,30.9,14.2,0000.0,0003.91,0013.47,0001.85
2022-05-20 04:59:00,,0815.7,5.00,0.00,29.2,28.0,00.0,38.2,31.0,14.2,0000.0,0003.86,0012.44,0001.86
